Location: *
(48.8780°N, 19.2358°E)
Time: 21:52:46
(UTC+00:00)

Cosmos 1271 Rocket - Pass Details

Date: 18 October 2019
Orbit: 499 x 545 km, 81.2° (Epoch: 21 November)

Event Time Altitude Azimuth Distance (km) Brightness Sun altitude
Rises 16:39:52 0° 345° (NNW) 2,697 6.5 -9.2°
Reaches altitude 10° 16:42:03 10° 341° (NNW) 1,807 5.7 -9.5°
Maximum altitude 16:45:57 58° 263° (W) 636 3.5 -10.2°
Drops below altitude 10° 16:49:53 10° 184° (S) 1,808 5.5 -10.8°
Sets 16:52:03 0° 180° (S) 2,698 6.4 -11.2°
